| time (UTC) | temp F | wind direction | speed MPH | gust MPH | rain 1hr in | rain 24hr in | rain mn in | humidity % | barometer mb |
| 20260507024523 | 40 | 235 | 1.0 | 5.0 | 0.02 | 0.60 | 0.60 | 97 | 1007.1 |
| 20260507023022 | 41 | 267 | 0.0 | 5.0 | 0.02 | 0.60 | 0.60 | 97 | 1007.0 |
| 20260507021522 | 41 | 242 | 0.0 | 3.0 | 0.03 | 0.60 | 0.60 | 97 | 1007.0 |
| 20260507020021 | 41 | 266 | 0.0 | 5.0 | 0.02 | 0.59 | 0.59 | 97 | 1007.1 |
| 20260507014527 | 41 | 193 | 1.0 | 6.0 | 0.01 | 0.57 | 0.57 | 97 | 1007.0 |
| 20260507013034 | 41 | 283 | 1.0 | 7.0 | 0.02 | 0.57 | 0.57 | 97 | 1006.8 |
| 20260507011529 | 41 | 245 | 1.0 | 5.0 | 0.01 | 0.56 | 0.56 | 97 | 1006.9 |
| 20260507010013 | 42 | 243 | 1.0 | 7.0 | 0.01 | 0.56 | 0.56 | 97 | 1006.6 |
| 20260507004516 | 42 | 264 | 0.0 | 5.0 | 0.01 | 0.56 | 0.56 | 97 | 1006.4 |
| 20260507003008 | 43 | 245 | 1.0 | 5.0 | 0.00 | 0.56 | 0.56 | 97 | 1006.1 |
| 20260507001508 | 43 | 273 | 1.0 | 9.0 | 0.01 | 0.56 | 0.56 | 96 | 1005.8 |
| 20260507000010 | 45 | 239 | 0.0 | 4.0 | 0.01 | 0.56 | 0.56 | 96 | 1005.4 |
| 20260506234558 | 47 | 285 | 0.0 | 4.0 | 0.01 | 0.56 | 0.56 | 97 | 1005.1 |
| 20260506233107 | 47 | 220 | 0.0 | 4.0 | 0.01 | 0.56 | 0.56 | 97 | 1004.8 |
| 20260506231556 | 47 | 114 | 0.0 | 3.0 | 0.00 | 0.55 | 0.55 | 96 | 1004.8 |
| 20260506230052 | 48 | 164 | 0.0 | 5.0 | 0.01 | 0.55 | 0.55 | 95 | 1004.5 |
| 20260506224548 | 52 | 285 | 2.0 | 6.0 | 0.01 | 0.55 | 0.55 | 94 | 1004.1 |
| 20260506223103 | 54 | 151 | 0.0 | 7.0 | 0.02 | 0.55 | 0.55 | 95 | 1003.7 |
| 20260506221547 | 55 | 134 | 0.0 | 2.0 | 0.02 | 0.55 | 0.55 | 95 | 1003.8 |
| 20260506220047 | 56 | 86 | 0.0 | 1.0 | 0.01 | 0.54 | 0.54 | 95 | 1003.4 |
| 20260506214545 | 57 | 115 | 1.0 | 3.0 | 0.01 | 0.55 | 0.54 | 93 | 1003.3 |
| 20260506213045 | 57 | 105 | 3.0 | 9.0 | 0.00 | 0.54 | 0.53 | 91 | 1003.3 |
| 20260506211546 | 57 | 122 | 3.0 | 8.0 | 0.00 | 0.54 | 0.53 | 91 | 1003.3 |
| 20260506210045 | 57 | 72 | 4.0 | 12.0 | 0.00 | 0.54 | 0.53 | 93 | 1003.2 |
| 20260506204543 | 57 | 141 | 1.0 | 9.0 | 0.01 | 0.54 | 0.53 | 96 | 1003.3 |
| 20260506203045 | 57 | 109 | 7.0 | 12.0 | 0.01 | 0.54 | 0.53 | 96 | 1003.0 |
| 20260506201542 | 56 | 108 | 11.0 | 18.0 | 0.02 | 0.54 | 0.53 | 96 | 1002.7 |
| 20260506194539 | 56 | 124 | 8.0 | 12.0 | 0.11 | 0.53 | 0.52 | 96 | 1003.2 |
| 20260506193037 | 56 | 95 | 7.0 | 14.0 | 0.16 | 0.53 | 0.52 | 96 | 1003.3 |
| 20260506191535 | 56 | 98 | 7.0 | 14.0 | 0.16 | 0.52 | 0.51 | 97 | 1003.4 |
| 20260506190035 | 55 | 98 | 5.0 | 11.0 | 0.18 | 0.51 | 0.50 | 97 | 1003.7 |
| 20260506184531 | 55 | 123 | 3.0 | 8.0 | 0.12 | 0.42 | 0.41 | 97 | 1004.2 |
| 20260506183031 | 56 | 150 | 2.0 | 9.0 | 0.09 | 0.37 | 0.36 | 97 | 1004.2 |
| 20260506181535 | 55 | 127 | 6.0 | 12.0 | 0.11 | 0.36 | 0.35 | 97 | 1004.0 |
| 20260506180037 | 55 | 105 | 7.0 | 12.0 | 0.10 | 0.33 | 0.32 | 97 | 1004.3 |
| 20260506174528 | 55 | 124 | 6.0 | 11.0 | 0.11 | 0.30 | 0.28 | 97 | 1004.3 |
| 20260506173024 | 55 | 99 | 6.0 | 13.0 | 0.13 | 0.27 | 0.26 | 97 | 1004.6 |
| 20260506171537 | 55 | 82 | 8.0 | 14.0 | 0.15 | 0.25 | 0.24 | 97 | 1005.0 |
| 20260506170022 | 55 | 96 | 8.0 | 14.0 | 0.14 | 0.22 | 0.21 | 97 | 1005.0 |
| 20260506164521 | 55 | 82 | 7.0 | 14.0 | 0.12 | 0.18 | 0.17 | 96 | 1005.1 |
| 20260506163022 | 56 | 108 | 5.0 | 10.0 | 0.09 | 0.14 | 0.13 | 96 | 1005.3 |
| 20260506161524 | 56 | 126 | 8.0 | 15.0 | 0.06 | 0.10 | 0.09 | 96 | 1005.2 |
| 20260506160016 | 56 | 96 | 5.0 | 9.0 | 0.06 | 0.08 | 0.07 | 96 | 1005.5 |
| 20260506154513 | 56 | 126 | 5.0 | 9.0 | 0.05 | 0.06 | 0.05 | 95 | 1005.7 |
| 20260506153012 | 56 | 95 | 5.0 | 10.0 | 0.04 | 0.05 | 0.04 | 95 | 1005.8 |
| 20260506151512 | 56 | 131 | 4.0 | 8.0 | 0.03 | 0.04 | 0.03 | 94 | 1006.0 |
| 20260506150011 | 57 | 111 | 1.0 | 6.0 | 0.01 | 0.02 | 0.01 | 91 | 1006.4 |
| 20260506144509 | 58 | 84 | 3.0 | 10.0 | 0.00 | 0.01 | 0.00 | 85 | 1006.7 |
| 20260506143010 | 59 | 148 | 2.0 | 7.0 | 0.00 | 0.01 | 0.00 | 82 | 1006.6 |
| 20260506141508 | 58 | 242 | 0.0 | 5.0 | 0.00 | 0.01 | 0.00 | 84 | 1006.4 |
| 20260506140010 | 59 | 151 | 1.0 | 6.0 | 0.00 | 0.01 | 0.00 | 83 | 1006.2 |
| 20260506134519 | 59 | 111 | 2.0 | 5.0 | 0.00 | 0.01 | 0.00 | 83 | 1006.1 |
| 20260506133007 | 58 | 149 | 1.0 | 5.0 | 0.00 | 0.01 | 0.00 | 85 | 1006.1 |
| 20260506131506 | 56 | 88 | 0.0 | 1.0 | 0.00 | 0.01 | 0.00 | 87 | 1006.2 |
| 20260506130006 | 55 | 121 | 0.0 | 1.0 | 0.00 | 0.01 | 0.00 | 88 | 1006.5 |
| 20260506124510 | 55 | 138 | 0.0 | 2.0 | 0.00 | 0.01 | 0.00 | 89 | 1006.9 |
| 20260506123005 | 54 | 262 | 0.0 | 2.0 | 0.00 | 0.01 | 0.00 | 92 | 1006.9 |
| 20260506121508 | 53 | 96 | 0.0 | 3.0 | 0.00 | 0.01 | 0.00 | 94 | 1006.7 |
| 20260506120009 | 52 | 208 | 0.0 | 1.0 | 0.00 | 0.01 | 0.00 | 94 | 1005.8 |
| 20260506114503 | 52 | 255 | 0.0 | 1.0 | 0.00 | 0.01 | 0.00 | 94 | 1006.5 |
| 20260506113004 | 52 | 200 | 0.0 | 1.0 | 0.00 | 0.01 | 0.00 | 94 | 1006.6 |
| 20260506111613 | 52 | 111 | 0.0 | 2.0 | 0.00 | 0.01 | 0.00 | 94 | 1006.5 |
| 20260506110059 | 52 | 259 | 0.0 | 1.0 | 0.00 | 0.01 | 0.00 | 94 | 1006.5 |
| 20260506104605 | 52 | 146 | 0.0 | 1.0 | 0.00 | 0.01 | 0.00 | 95 | 1006.4 |
| 20260506103105 | 52 | 251 | 0.0 | 1.0 | 0.00 | 0.01 | 0.00 | 94 | 1006.4 |
| 20260506101554 | 53 | 266 | 0.0 | 5.0 | 0.00 | 0.01 | 0.00 | 93 | 1006.2 |
| 20260506100054 | 53 | 156 | 0.0 | 1.0 | 0.00 | 0.01 | 0.00 | 93 | 1006.2 |
| 20260506094554 | 53 | 88 | 0.0 | 2.0 | 0.00 | 0.01 | 0.00 | 93 | 1006.2 |
| 20260506093056 | 53 | 92 | 0.0 | 1.0 | 0.00 | 0.01 | 0.00 | 95 | 1006.4 |
| 20260506091551 | 53 | 146 | 0.0 | 1.0 | 0.00 | 0.01 | 0.00 | 94 | 1006.6 |
| 20260506090050 | 53 | 13 | 0.0 | 0.0 | 0.00 | 0.01 | 0.00 | 95 | 1006.4 |
| 20260506084548 | 53 | 14 | 0.0 | 1.0 | 0.00 | 0.01 | 0.00 | 94 | 1006.7 |
| 20260506083107 | 53 | 43 | 0.0 | 1.0 | 0.00 | 0.01 | 0.00 | 94 | 1006.9 |
| 20260506081549 | 53 | 21 | 0.0 | 0.0 | 0.00 | 0.01 | 0.00 | 93 | 1007.0 |
| 20260506073038 | 54 | 22 | 0.0 | 0.0 | 0.00 | 0.01 | 0.00 | 92 | 1007.3 |
| 20260506071535 | 54 | 21 | 0.0 | 1.0 | 0.00 | 0.01 | 0.00 | 91 | 1007.2 |
| 20260506061536 | 56 | 109 | 0.0 | 2.0 | 0.00 | 0.01 | 0.00 | 89 | 1007.1 |
| 20260506044519 | 58 | 98 | 0.0 | 1.0 | 0.00 | 0.01 | 0.00 | 84 | 1007.8 |
| 20260506043015 | 58 | 103 | 1.0 | 7.0 | 0.00 | 0.01 | 0.00 | 82 | 1007.8 |
| 20260506041513 | 58 | 127 | 3.0 | 8.0 | 0.00 | 0.01 | 0.00 | 82 | 1007.6 |
| 20260506040009 | 59 | 113 | 2.0 | 7.0 | 0.00 | 0.01 | 0.01 | 79 | 1007.7 |
| 20260506034508 | 59 | 94 | 2.0 | 5.0 | 0.00 | 0.01 | 0.01 | 78 | 1007.6 |
| 20260506033014 | 59 | 114 | 1.0 | 3.0 | 0.00 | 0.01 | 0.01 | 77 | 1007.7 |
| 20260506031507 | 60 | 91 | 1.0 | 6.0 | 0.00 | 0.01 | 0.01 | 76 | 1007.7 |
| 20260506030006 | 60 | 91 | 3.0 | 8.0 | 0.00 | 0.01 | 0.01 | 76 | 1007.6 |